Location: Unspecified
(44.4377°N, 88.0525°W)
Time: 23:01:52
(UTC-05:00)

Okean 3 - Pass Details

Date: 19 April 2019
Orbit: 576 x 602 km, 82.5° (Epoch: 20 May)

Event Time Altitude Azimuth Distance (km) Brightness Sun altitude
Exits shadow 02:16:48 29° 10° (N) 1,095 5.3 -31.2°
Drops below altitude 10° 02:18:57 10° 9° (N) 1,929 6.9 -31.0°
Sets 02:21:09 0° 9° (N) 2,831 8.0 -30.8°
